Theta_e
335 335 335 334 337 334 335 337 339 340 342 340 338 337 336 335 335 334 334 335 334 329 328 330 335 335 335 333 332 331 331 331 329 336 337 336 335 335 334 334 332 329 329
338 337 337 336 335 336 335 335 338 339 340 340 339 337 337 336 336 335 335 335 334 331 328 328 334 337 336 336 333 330 330 331 329 329 336 337 334 334 335 334 334 331 328
339 339 339 338 335 336 335 336 337 338 339 340 337 338 338 337 337 336 336 334 335 334 331 328 328 333 336 336 337 331 330 329 327 328 336 337 333 334 333 334 334 332 330
343 342 339 338 337 335 336 336 336 335 340 337 336 338 339 338 337 337 335 334 335 334 334 333 329 329 334 336 337 334 330 330 327 326 334 335 336 334 333 334 334 334 332
345 343 341 338 338 336 335 335 334 336 337 337 337 339 340 339 336 335 334 334 333 334 335 333 331 329 328 334 337 337 331 329 327 326 332 333 336 334 334 333 333 333 334
345 345 343 340 338 337 335 334 334 336 335 336 337 340 338 337 336 332 332 332 334 335 334 334 332 332 327 328 335 337 336 330 329 326 333 333 336 335 334 334 333 332 335
345 345 343 342 340 337 336 335 335 336 337 338 338 339 338 335 334 334 331 333 333 334 334 334 333 334 330 328 329 333 334 331 329 327 333 334 334 333 331 332 331 334 334
345 345 343 342 340 338 338 337 336 336 336 341 340 336 335 331 333 334 332 332 334 333 333 334 334 334 332 330 331 329 331 332 329 329 329 335 335 334 332 331 332 333 331
345 344 343 343 342 339 338 337 338 337 339 341 339 336 333 334 335 333 333 332 333 333 333 334 334 334 332 328 330 328 327 332 330 326 327 333 334 333 333 331 333 332 328
343 343 343 342 343 341 338 338 337 338 341 339 337 335 334 332 333 334 333 333 333 334 335 333 334 334 332 328 333 333 322 327 331 331 327 332 334 333 333 332 333 328 324
344 343 343 342 341 340 337 338 341 340 339 337 334 333 331 330 330 332 334 334 334 334 334 334 332 333 335 334 334 332 326 322 328 329 329 331 333 333 333 332 329 326 325
343 342 342 342 341 338 341 342 340 340 338 336 332 331 331 330 331 333 332 335 336 334 332 330 333 332 333 327 331 332 329 322 327 327 330 333 333 334 333 331 325 326 325
342 343 343 341 340 343 342 341 340 339 337 334 333 331 330 330 330 330 332 334 334 332 332 330 333 332 326 325 329 330 329 324 327 328 332 333 333 334 331 327 327 327 325
344 343 343 344 344 342 339 339 338 336 334 333 332 331 332 331 331 330 332 333 333 333 332 332 330 331 331 329 332 327 330 323 328 329 331 333 333 332 329 328 328 326 325
345 345 344 343 341 339 339 339 334 333 332 332 334 333 333 332 332 330 331 330 331 332 334 331 330 329 332 331 331 331 331 324 328 330 333 333 333 330 328 328 326 325 323
344 344 342 340 339 338 336 335 332 332 333 334 333 334 333 333 332 331 327 327 329 330 333 328 330 331 330 331 329 333 332 326 328 330 333 333 331 329 328 326 325 324 322
340 339 338 337 336 334 333 333 334 333 333 335 335 333 333 334 331 330 329 327 326 327 333 331 333 334 332 332 334 333 332 329 329 329 332 332 329 328 326 324 324 322 322
337 336 335 333 332 331 333 334 334 333 333 334 334 332 332 332 332 330 330 331 329 332 329 333 332 332 333 332 331 331 331 329 329 331 330 330 328 326 325 322 323 322 322
334 332 331 330 330 331 333 334 334 334 334 333 332 332 331 332 332 332 333 334 333 331 331 332 328 328 330 330 328 328 329 329 330 330 329 328 326 323 322 324 321 321 321
331 330 330 330 330 332 333 334 334 333 334 330 334 332 331 332 333 333 334 334 334 334 331 329 326 325 325 326 326 325 324 326 323 324 324 324 320 321 323 322 320 320 318
330 330 330 332 332 334 333 335 335 334 334 333 333 333 333 332 332 333 333 333 334 332 330 326 325 323 323 324 324 323 321 321 321 323 322 321 321 322 320 321 320 317 315
330 330 330 332 334 331 329 329 333 333 332 331 333 333 333 331 331 331 331 332 332 331 328 326 326 323 323 323 322 321 321 321 320 319 319 320 319 320 320 320 318 319 322
331 332 331 331 334 330 329 329 331 332 333 332 334 334 333 331 330 329 329 330 331 330 329 328 325 324 322 322 322 322 321 321 319 319 319 319 318 319 319 319 321 321 319
333 334 333 334 334 328 329 328 330 331 331 331 331 332 332 330 330 329 330 330 329 329 328 327 326 323 322 322 322 322 320 319 318 319 319 318 319 319 318 318 319 317 315
333 333 333 334 334 329 327 328 329 327 327 327 329 330 329 329 327 328 329 328 326 327 327 326 324 323 322 322 321 320 319 319 318 318 318 318 318 318 318 319 316 313 314
332 332 333 333 332 329 327 327 328 326 325 325 325 327 328 326 326 327 327 325 323 322 323 322 321 321 321 320 320 321 319 319 318 318 318 320 320 320 321 321 318 314 314
Wind_Speed
29 29 27 27 26 26 25 24 21 21 20 15 15 12 13 12 12 12 9 11 9 9 12 13 14 15 16 16 15 13 12 12 12 18 21 23 19 18 23 17 20 19 19
30 29 30 29 26 26 26 26 21 19 17 18 15 15 15 14 12 13 15 15 12 10 12 13 14 15 16 17 17 15 13 14 14 15 17 16 18 19 20 15 17 19 19
32 31 28 28 28 25 25 20 22 18 17 13 19 14 14 12 13 16 15 16 15 11 14 15 16 16 16 17 16 15 15 14 13 14 17 15 20 18 16 15 17 16 18
34 29 29 27 27 26 24 24 21 21 18 19 15 10 11 13 16 19 18 14 11 13 15 15 16 15 16 17 16 16 16 15 13 15 18 17 20 19 16 16 18 18 16
30 31 28 26 26 25 25 24 24 20 19 16 14 13 13 15 17 20 19 14 19 18 15 18 16 16 17 18 17 17 16 15 13 14 16 17 21 20 16 15 15 16 14
28 28 27 26 25 26 25 24 22 19 16 16 14 12 16 18 17 16 17 18 19 18 17 15 20 15 18 16 19 18 16 15 14 14 15 18 19 19 17 15 14 12 17
25 27 27 26 24 26 26 24 19 18 17 14 11 16 19 20 21 16 16 15 18 17 18 20 18 14 16 16 16 17 15 15 15 13 15 18 20 20 16 15 15 20 25
24 25 26 23 26 25 23 20 21 17 18 11 12 12 7 12 12 12 11 10 13 18 20 23 21 16 15 17 16 18 15 15 18 15 14 17 19 20 20 17 20 23 25
22 24 25 21 22 24 23 20 21 22 14 11 14 8 5 1 3 7 9 11 14 17 19 17 17 17 18 12 18 17 15 17 17 15 13 16 19 21 19 21 25 26 32
22 23 22 21 19 23 19 23 23 21 14 12 11 11 14 11 6 3 6 7 12 15 17 16 16 16 19 29 24 18 18 18 17 17 18 18 22 22 22 23 28 36 31
21 21 19 19 19 20 18 21 19 17 15 12 12 12 9 11 11 7 4 3 7 12 14 16 17 17 16 17 11 15 17 20 18 16 18 19 23 24 25 28 37 37 27
18 21 20 20 19 21 21 19 17 12 10 10 12 9 9 5 7 8 5 6 6 5 6 9 13 16 17 15 12 12 14 17 17 18 18 20 24 25 30 37 37 31 22
19 22 21 20 20 16 16 15 12 9 10 10 10 8 5 11 14 6 6 6 2 4 4 9 9 16 20 19 17 17 14 16 17 16 17 21 25 29 31 35 34 24 24
20 22 21 20 17 15 14 13 11 10 10 11 11 10 6 8 10 5 7 7 3 3 5 6 9 11 11 25 18 15 15 16 16 16 17 22 26 31 31 35 29 27 26
22 22 19 17 16 15 13 11 11 11 12 12 10 10 9 8 9 8 7 8 7 5 4 6 3 9 7 10 12 12 13 18 16 16 19 24 30 33 35 33 27 26 23
21 19 17 15 14 12 11 11 11 11 11 10 10 11 10 8 8 7 7 7 7 4 4 4 6 12 10 10 11 10 14 19 16 16 20 24 34 37 36 29 26 27 24
18 16 15 13 12 12 12 11 7 9 12 11 10 11 11 10 11 8 10 9 10 7 5 6 11 11 12 14 13 9 16 16 16 16 21 32 34 37 32 26 27 26 23
15 13 13 12 12 12 11 10 11 12 12 12 11 12 10 12 10 10 11 9 11 11 14 14 10 8 11 14 14 18 17 18 20 19 24 31 34 30 24 28 27 24 22
13 13 12 12 12 11 11 9 10 12 11 11 13 13 10 10 12 8 8 8 9 10 14 14 8 11 14 14 18 20 21 23 26 27 32 31 28 26 27 25 24 22 21
14 13 11 9 7 5 3 6 8 8 10 11 10 12 11 12 12 12 10 8 10 10 15 13 15 12 12 17 21 27 24 25 27 31 32 31 28 27 24 24 22 20 19
13 11 9 5 3 2 2 1 1 3 4 7 8 10 10 10 12 12 9 10 11 17 15 14 12 12 14 15 18 19 26 28 28 31 34 28 26 25 22 20 20 18 18
10 8 7 5 4 7 3 2 4 3 4 5 7 8 6 7 14 12 4 10 12 16 15 16 10 15 13 18 25 27 30 27 8 24 27 24 26 20 18 19 19 17 16
9 9 8 6 8 6 3 3 5 3 3 5 5 8 8 8 9 9 8 9 14 13 14 16 16 16 19 24 27 27 26 21 19 21 28 21 23 21 20 18 16 16 15
10 7 4 6 9 7 5 6 8 6 7 8 7 7 7 9 9 10 12 12 11 14 13 15 18 18 21 28 27 29 26 27 25 24 20 10 23 21 19 16 17 16 15
10 7 6 6 10 8 8 9 9 9 10 10 7 7 9 10 13 14 14 15 13 15 15 18 19 23 25 27 30 32 29 28 18 15 15 14 15 14 14 14 18 19 17
10 8 8 8 11 9 9 10 9 11 11 13 10 9 10 13 15 10 19 16 17 20 22 21 22 24 28 26 26 25 30 25 22 10 17 12 15 15 7 14 15 18 20
Wind_Direction
216 214 214 214 206 209 210 212 216 217 220 223 232 229 244 249 254 259 269 234 244 247 240 235 234 233 237 233 224 221 223 235 221 209 209 219 219 193 207 217 206 220 220
215 214 214 215 217 208 213 214 215 216 221 231 225 231 239 248 257 254 254 227 240 240 234 236 235 235 234 234 229 223 227 227 235 216 215 218 209 207 210 207 213 217 213
215 213 213 217 220 214 219 209 217 214 228 222 236 231 232 238 245 259 254 254 226 242 244 239 240 236 234 225 224 215 214 219 230 217 210 212 196 196 203 204 203 213 211
210 217 217 216 218 216 206 217 217 220 217 231 239 236 238 239 244 248 257 255 253 244 241 247 242 233 223 214 214 210 210 216 221 216 208 203 198 195 199 200 199 200 204
211 216 216 221 213 215 215 211 215 214 219 223 234 237 237 243 246 243 243 249 244 243 240 244 235 226 216 210 211 206 207 209 214 214 209 201 197 192 186 199 201 199 220
211 209 221 215 214 214 215 213 214 216 223 225 229 232 243 240 241 260 259 246 245 244 239 253 218 217 212 213 203 198 201 207 214 209 206 205 195 201 197 202 189 177 155
207 204 212 211 212 211 216 210 205 212 205 224 223 247 231 238 234 244 254 249 244 244 238 235 220 214 199 200 202 197 196 202 209 205 201 202 201 190 194 180 178 174 167
205 205 208 207 205 210 210 202 197 204 218 196 226 247 270 259 211 225 242 239 239 236 237 229 226 205 192 191 196 193 191 195 199 194 201 200 199 202 186 181 176 177 164
197 204 202 208 196 206 202 199 192 212 196 204 222 257 261 229 124 235 217 239 237 239 236 230 211 212 192 202 204 190 189 194 199 198 199 199 194 195 193 185 177 170 154
198 199 196 208 192 199 195 193 202 205 193 202 208 236 257 285 280 228 264 253 239 235 233 220 200 209 188 211 187 176 182 189 188 194 194 192 190 185 177 176 173 157 150
187 191 190 192 187 194 188 193 190 197 203 227 220 199 213 235 235 270 271 232 239 233 227 208 193 198 195 190 173 174 174 177 182 186 191 189 186 178 176 173 163 162 161
171 180 185 186 181 194 178 181 185 191 216 223 239 182 213 240 234 241 254 273 223 191 197 195 196 194 202 187 197 173 179 174 176 182 187 180 181 179 176 171 163 163 167
172 184 175 173 180 179 172 182 188 193 203 217 219 238 230 227 240 240 217 250 214 163 168 180 208 202 201 184 162 180 180 168 172 178 179 181 182 180 172 161 159 164 162
172 168 170 167 171 172 177 182 186 208 198 206 206 231 234 250 270 202 213 204 184 179 197 194 200 209 197 204 164 160 161 167 171 179 182 183 180 176 169 163 162 162 168
151 161 160 161 165 174 179 179 206 194 190 203 208 221 231 245 257 198 191 215 202 196 183 182 172 205 171 143 138 141 157 170 173 175 180 181 179 170 162 162 161 163 163
149 155 157 164 167 176 182 187 189 193 199 202 209 218 215 224 232 182 183 192 181 199 142 137 206 176 157 133 145 155 165 169 174 172 176 181 171 165 165 159 157 163 153
146 154 160 167 176 180 184 196 222 179 206 209 214 219 209 206 219 180 180 182 198 192 141 105 129 138 143 132 128 141 138 159 171 177 176 170 166 169 159 154 158 152 155
155 160 166 173 177 181 187 200 208 212 211 209 218 220 203 200 210 210 178 189 198 188 162 141 122 109 135 134 139 138 148 147 160 168 164 164 168 159 157 152 152 155 161
151 158 165 171 178 183 192 212 231 230 211 200 217 220 205 199 195 195 198 199 191 178 173 155 137 132 122 128 123 122 131 149 161 164 162 159 156 155 154 154 156 161 169
151 157 167 171 183 179 210 248 233 225 214 207 217 215 207 189 203 196 191 189 174 153 138 134 136 138 125 135 131 126 118 143 137 150 151 148 148 152 155 158 160 168 173
154 159 167 142 154 160 133 53 146 209 182 164 184 204 215 191 189 186 183 177 164 145 135 143 139 132 132 135 134 129 120 125 133 152 141 144 148 149 151 163 168 172 176
161 136 101 139 129 79 109 132 100 135 160 162 178 169 153 159 180 180 182 154 152 140 149 158 142 143 141 133 135 134 130 130 116 143 136 140 151 147 161 172 170 176 183
138 120 149 122 98 80 105 101 115 106 120 122 143 151 168 152 150 158 155 148 153 158 163 163 154 152 147 148 142 139 138 136 133 142 138 133 159 154 165 169 180 186 195
135 142 130 110 98 83 105 110 114 117 113 112 142 162 150 152 154 149 146 146 135 134 152 153 159 157 157 152 147 144 134 125 130 141 143 125 162 164 173 191 198 202 206
156 154 137 111 104 103 109 118 115 125 125 124 107 110 137 142 146 144 143 136 127 132 144 147 147 151 153 149 149 139 133 134 134 138 160 141 160 166 184 202 211 211 217
166 154 118 96 108 113 115 126 138 130 121 118 121 121 118 130 145 142 136 131 119 127 136 139 142 147 147 147 148 154 148 145 141 125 163 152 168 167 194 211 204 222 226